OPS 5798 DEB, 901

Orbit data source: Space-Track

OPS 5798 DEB, 901 is space debris in LEO originally from a launch on Tue, 06 Oct 1964 UTC launched from the Air Force Western Test Range (AFWTR). Debris objects in space refer to the collection of defunct objects orbiting the Earth. Examples of debris include non-operational satellites, rocket bodies, and fragments generated from explosions, collisions, or faulty payload assembly.

Loading next visibility...
Identifier
901, 1964-063D
Orbit
LEO
Last TLE update
16 hours ago
Origin
Manufacturer
NAFI?
Mission
Spacecraft
Bus & Motor
Unknown
Mass
~20 kg wet, ~20 kg dry
Launch date (UTC)
1964-10-06 (61 years ago)
Launch vehicle
Unknown
Launch site
Air Force Western Test Range (AFWTR)
Object type
Payload
Rocket body
Debris
Shape & HBR
Unknown
Radar Cross Section
1.300 m², Large (>1 m²)

Expand to show TLE details & history

TLE from 16 hours ago
0 OPS 5798 DEB
1 00901U 64063D   25128.75305575  .00000139  00000-0  18934-3 0  9995
2 00901  90.2327  66.8787 0017806 215.8744 206.1362 13.55057441991688
Epoch: 2025-05-08T18:04Z
Definitive object data (Epoch: 2025-05-08T18:04:24.016Z)
Latitude
62.00708°
Longitude
-71.47593°
Altitude
1,076.305 km
Speed
7.314 km/s
True Right ascension
04h 25m 46s
True Declination
61° 52' 13"
Sunlit
Object was in daylight at TLE epoch
Visualization TLE readout
Latitude
-18.73407°
Longitude
-70.94655°
Altitude
1,068.991 km
Speed
7.313 km/s
Apparent Right ascension
05h 00m 12s
Apparent Declination
-28° 41' 50"
Sunlit
Object is in daylight
Visualization observer readout
Local Sidereal Time
17:46:54
Azimuth
44.145° NE
Elevation
-75.232°
Doppler factor
1
Orbital elements
Apogee altitude
1,063.979 km
Perigee altitude
1,037.524 km
Semi-major axis
7,428.889 km
Eccentricity
0.0017806
Inclination
90.2327°
RAAN
66.8787°
Arg. of periapsis
215.8744°
True anomaly
206.0465°
Mean anomaly
206.1362°
Eccentric anomaly
206.09133°
Mean motion
3.38967 °/min
BSTAR
0.00018934
Orbital period
106.21 mins
Loading maneuver chart data...
Loading SW <> Apogee altitude chart data...
Loading historical data...
Loading historical data...
Loading historical data...
Loading historical data...
Loading historical data...
Loading historical data...
Loading historical data...

OPS 5798 DEB Visibility forecast

Observer location: undefined°, undefined°

Span
Click to sort rows by Start time (UTC) header in descending order
Start Az.
Max El. time (UTC)
Max El. Az.
Max El.
End time (UTC)
End Az.
8 mins2025-05-09 18:43:33.290Z110.792° ESE2025-05-09 18:47:33.290Z70.938° E18.202°2025-05-09 18:51:33.290Z31.83° NE
11 mins2025-05-09 20:27:33.290Z188.58° SSW2025-05-09 20:32:33.290Z253.56° W42.668°2025-05-09 20:38:33.290Z350.913° N
11 mins2025-05-10 07:35:33.290Z18.265° NNE2025-05-10 07:40:33.290Z89.051° E37.064°2025-05-10 07:46:33.290Z161.385° S
8 mins2025-05-10 09:22:33.290Z327.757° NNW2025-05-10 09:26:33.290Z279.6° WNW23.476°2025-05-10 09:30:33.290Z236.851° WSW
|